User: anonymous   Login
Location: Unspecified
(0.0000°N, 0.0000°E)
Time: 20:46:23
(UTC+01:00)
Language:

ARIANE 5 R/B - Orbit

View from above orbital plane
View from above orbital plane
View from above satellite
View from above satellite

Ground track
Ground track

The orbit data is extracted from the following two-line orbital elements,

1 27387U 02009B   17056.86029587 -.00000019 +00000-0 +80335-5 0  9997
2 27387 098.4512 008.4117 0033533 109.9458 250.5345 14.35921358785524
Epoch (UTC): 25 February 2017 20:38:49
Eccentricity: 0.0033533
inclination: 98.4512°
perigee height: 748 km
apogee height: 796 km
right ascension of ascending node: 8.4117°
argument of perigee: 109.9458°
revolutions per day: 14.35921358
mean anomaly at epoch: 250.5345°
orbit number at epoch: 78552

The dashed part of the orbit path shows where the satellite is in the earth's shadow,  

DLR